Location: Lhota
(50.0887°N, 14.0116°E)
Time: 00:35:50
(UTC+00:00)

Cosmos 1707 - Pass Details

Date: 19 May 2025
Orbit: 423 x 430 km, 82.5° (Epoch: 15 June)

Event Time Altitude Azimuth Distance (km) Brightness Sun altitude
Exits shadow 22:54:09 47° 262° (W) 586 2.8 -19.9°
Maximum altitude 22:54:28 49° 283° (WNW) 570 2.9 -19.9°
Drops below altitude 10° 22:57:46 10° 0° (N) 1,551 6.3 -19.9°
Sets 22:59:52 0° 6° (N) 2,426 7.7 -19.9°
